[[{"header":{"parameterUnit":"m.s-1","parameterCategory":2,"la1":30.2991,"la2":30.254,"lo1":-89.0895,"lo2":-89.0444,"dy":0.0017,"dx":0.0017,"nx":28,"ny":28,"refTime":"2023-08-21T03:00:00:Z","depth":"0","parameterNumber":2,"parameterNumberName":"U-component_of_CURRENTS"},"data":[0,0,0,0,0,0,0,0,0,0,0,0,0,0,0,0,0,0,0,0,0,0,0,0,0,0,0,0,0,0,0,0,0,0,0,0,0,0,0,0,0,0,0,0,0,0,0,0,0,0,0,0,0,0,0,0,0,0,-0.2404,-0.2404,0,-0.2424,-0.2424,-0.2424,-0.2373,-0.2371,-0.237,-0.2369,-0.2327,-0.2327,-0.2327,0,0,0,0,0,0,0,0,0,0,0,0,0,-0.232,-0.2322,-0.2404,-0.2404,-0.2405,-0.2424,-0.2424,-0.2424,-0.2373,-0.2371,-0.237,-0.2368,-0.2327,-0.2327,-0.2327,0,0,0,0,0,0,0,0,0,0,0,0,0,-0.2348,-0.2323,-0.2404,-0.2383,-0.2382,-0.2424,-0.2424,-0.2424,-0.2373,-0.2371,-0.2369,-0.2367,-0.2327,-0.2327,-0.2327,-0.2372,0,0,-0.2328,-0.2329,0,0,0,0,0,0,0,0,-0.2347,-0.2351,-0.2386,-0.2385,-0.2383,-0.2395,-0.2379,-0.2404,-0.2374,-0.2374,-0.2369,-0.2366,-0.2347,-0.2346,-0.2352,-0.237,-0.2368,-0.2328,-0.2329,-0.2329,-0.2329,0,0,0,0,0,0,0,-0.2345,-0.235,-0.241,-0.2386,-0.2385,-0.2372,-0.2374,-0.2384,-0.237,-0.2374,-0.2371,-0.2377,-0.2345,-0.2352,-0.2351,-0.2368,-0.2328,-0.2329,-0.2329,-0.2329,-0.2406,-0.2407,0,0,0,0,0,0,-0.2349,-0.2349,-0.2409,-0.241,-0.2361,-0.2376,-0.2377,-0.2392,-0.2371,-0.2367,-0.2379,-0.2375,-0.2352,-0.235,-0.2349,-0.2399,-0.2329,-0.2329,-0.2329,-0.2404,-0.2406,-0.2408,0,0,0,0,0,0,-0.2348,-0.2355,-0.2408,-0.238,-0.2387,-0.238,-0.2396,-0.2393,-0.2402,-0.2376,-0.2369,-0.239,-0.2351,-0.2348,-0.2372,-0.2397,-0.2329,-0.2329,-0.2402,-0.2405,-0.2407,-0.2501,0,0,0,0,0,0,-0.2345,-0.2354,-0.2367,-0.2381,-0.2388,-0.2452,-0.2399,-0.2395,-0.241,-0.2404,-0.2384,-0.2377,-0.2349,-0.2373,-0.2373,-0.2396,-0.233,-0.2399,-0.2403,-0.2406,-0.2495,-0.2506,-0.2516,0,0,0,0,0,-0.2342,-0.2379,-0.2368,-0.2375,-0.2406,-0.2454,-0.2458,-0.2442,-0.2413,-0.2437,-0.2419,-0.2378,-0.2393,-0.2375,-0.2375,-0.2399,-0.2398,-0.2402,-0.2406,-0.2491,-0.2504,-0.2515,0,0,0,0,0,0,-0.2353,-0.2378,-0.2366,-0.2408,-0.2434,-0.2446,-0.2467,-0.2457,-0.2464,-0.2449,-0.2413,-0.2409,-0.2434,-0.2414,-0.2394,-0.2431,-0.2385,-0.2389,-0.2449,-0.2462,-0.2472,-0.2468,-0.233,0,0,0,0,0,-0.2362,-0.2389,-0.2414,-0.2446,-0.2464,-0.2466,-0.2481,-0.2475,-0.2483,-0.2482,-0.247,-0.2454,-0.2455,-0.2455,-0.2454,-0.2487,-0.2448,-0.2499,-0.2509,-0.2518,-0.2516,-0.2489,-0.2496,-0.2422,-0.2422,-0.2422,0,0,-0.237,-0.239,-0.2402,-0.2449,-0.2462,-0.2513,-0.247,-0.2505,-0.2539,-0.2479,-0.2518,-0.2495,-0.2474,-0.2502,-0.2511,-0.2486,-0.2522,-0.2523,-0.2531,-0.2523,-0.2494,-0.2501,-0.2507,-0.2425,-0.2424,-0.2424,0,0,-0.2414,-0.2426,-0.2465,-0.2504,-0.2539,-0.2549,-0.2565,-0.259,-0.2591,-0.2636,-0.2589,-0.2581,-0.2602,-0.2577,-0.257,-0.264,-0.2579,-0.2642,-0.269,-0.2665,-0.267,-0.2675,-0.2644,-0.2645,-0.2645,-0.2645,-0.2645,0,-0.2424,-0.2483,-0.2486,-0.2548,-0.2587,-0.2573,-0.2637,-0.2651,-0.2677,-0.2681,-0.2661,-0.2655,-0.2635,-0.2644,-0.2664,-0.2661,-0.2636,-0.2644,-0.2677,-0.268,-0.2683,-0.265,-0.2649,-0.265,-0.265,-0.2649,-0.2649,0,-0.25,-0.2558,-0.2594,-0.2661,-0.27,-0.276,-0.2783,-0.2809,-0.2803,-0.2801,-0.2811,-0.2775,-0.2763,-0.2758,-0.2736,-0.2745,-0.2719,-0.2694,-0.2642,-0.2695,-0.2658,-0.2656,-0.2657,-0.2656,-0.2654,-0.2653,0,0,-0.2504,-0.2624,-0.2636,-0.2695,-0.2771,-0.2812,-0.2872,-0.2918,-0.294,-0.2936,-0.2956,-0.2939,-0.2888,-0.2875,-0.2829,-0.2803,-0.2803,-0.2765,-0.2761,-0.2728,-0.2748,-0.2664,-0.2652,-0.2786,-0.2786,-0.2786,-0.2718,0,-0.2567,-0.2698,-0.2738,-0.2861,-0.2939,-0.2961,-0.3017,-0.3044,-0.3048,-0.3064,-0.3001,-0.3001,-0.2943,-0.2928,-0.2896,-0.2826,-0.28,-0.2823,-0.2706,-0.2702,-0.2615,-0.2648,-0.2558,-0.2483,-0.2715,-0.2714,-0.2714,0,-0.2628,-0.2716,-0.2843,-0.2973,-0.3004,-0.3063,-0.3132,-0.3179,-0.3185,-0.3181,-0.315,-0.3104,-0.3059,-0.3003,-0.29,-0.292,-0.2848,-0.2785,-0.278,-0.2662,-0.2613,-0.2466,-0.2469,-0.243,-0.271,-0.271,-0.271,0,-0.2624,-0.2789,-0.2887,-0.294,-0.3073,-0.3118,-0.317,-0.3203,-0.3224,-0.3238,-0.3235,-0.3184,-0.313,-0.3054,-0.2921,-0.2921,-0.2797,-0.2779,-0.2631,-0.2624,-0.2502,-0.2484,-0.2443,-0.2712,-0.2712,-0.2712,-0.2713,0,-0.268,-0.2761,-0.2897,-0.2958,-0.3059,-0.314,-0.3206,-0.3248,-0.3277,-0.3268,-0.3275,-0.3235,-0.3138,-0.3051,-0.2953,-0.2774,-0.2819,-0.2637,-0.2601,-0.2534,-0.252,-0.2441,-0.2451,-0.271,-0.271,-0.2711,-0.2711,0,-0.2645,-0.2745,-0.2863,-0.3015,-0.306,-0.3117,-0.3216,-0.3242,-0.3294,-0.328,-0.3281,-0.3257,-0.3135,-0.3031,-0.2883,-0.2782,-0.2588,-0.2578,-0.2502,-0.2456,-0.2277,-0.2296,-0.2191,-0.2133,-0.2411,-0.2409,-0.2406,0,-0.2636,-0.2695,-0.2862,-0.2909,-0.2974,-0.3071,-0.3114,-0.3216,-0.3231,-0.3258,-0.3231,-0.316,-0.3066,-0.2856,-0.2664,-0.2486,-0.2464,-0.2315,-0.2291,-0.2253,-0.2247,-0.2259,-0.222,-0.2174,-0.217,-0.2167,-0.2164,0,-0.2599,-0.2645,-0.273,-0.2828,-0.2898,-0.2975,-0.3051,-0.3076,-0.3146,-0.3165,-0.3131,-0.3083,-0.2874,-0.2641,-0.2428,-0.2308,-0.226,-0.2242,-0.2221,-0.2072,-0.2062,-0.1993,-0.2243,-0.2136,-0.2139,-0.2141,-0.2143,-0.2144,-0.2528,-0.2553,-0.2641,-0.271,-0.2797,-0.2837,-0.2861,-0.2937,-0.2967,-0.2961,-0.2964,-0.2853,-0.2619,-0.2298,-0.2186,-0.194,-0.2004,-0.187,-0.19,-0.1919,-0.1849,-0.2034,-0.1873,-0.1875,-0.1876,-0.1877,-0.1877,0,-0.2408,-0.2439,-0.2507,-0.2585,-0.2619,-0.2711,-0.2775,-0.2775,-0.2785,-0.2764,-0.2734,-0.2469,-0.2229,-0.2031,-0.174,-0.1637,-0.1608,-0.1604,-0.1618,-0.1597,-0.1761,-0.1736,-0.1514,-0.1514,-0.1515,-0.1515,-0.1515,-0.1515,-0.2346,-0.2338,-0.2364,-0.2375,-0.2436,-0.2432,-0.2453,-0.2485,-0.2473,-0.2388,-0.2263,-0.2172,-0.1937,-0.1804,-0.157,-0.1485,-0.1444,-0.1401,-0.1427,-0.1571,-0.1599,-0.1626,-0.1604,-0.1358,-0.1358,-0.1212,-0.121,-0.121]},{"header":{"parameterUnit":"m.s-1","parameterCategory":2,"la1":30.2991,"la2":30.254,"lo1":-89.0895,"lo2":-89.0444,"dy":0.0017,"dx":0.0017,"nx":28,"ny":28,"refTime":"2023-08-21T03:00:00:Z","depth":"0","parameterNumber":3,"parameterNumberName":"V-component_of_CURRENTS"},"data":[0,0,0,0,0,0,0,0,0,0,0,0,0,0,0,0,0,0,0,0,0,0,0,0,0,0,0,0,0,0,0,0,0,0,0,0,0,0,0,0,0,0,0,0,0,0,0,0,0,0,0,0,0,0,0,0,0,0,0.0458,0.0458,0,0.045,0.0451,0.0451,0.048,0.048,0.0481,0.0481,0.0508,0.0509,0.0509,0,0,0,0,0,0,0,0,0,0,0,0,0,0.04,0.0402,0.0458,0.0458,0.0457,0.045,0.0451,0.0451,0.048,0.048,0.0481,0.0481,0.0508,0.0509,0.0509,0,0,0,0,0,0,0,0,0,0,0,0,0,0.0416,0.0403,0.0459,0.0468,0.0468,0.045,0.0451,0.0451,0.048,0.048,0.0481,0.0482,0.0508,0.0509,0.0509,0.0497,0,0,0.051,0.051,0,0,0,0,0,0,0,0,0.0416,0.0419,0.0467,0.0467,0.0468,0.0463,0.044,0.0467,0.0479,0.048,0.0481,0.0482,0.0493,0.0495,0.0497,0.0498,0.05,0.051,0.051,0.0511,0.0511,0,0,0,0,0,0,0,0.0415,0.0419,0.046,0.0466,0.0467,0.0438,0.0443,0.0445,0.0486,0.048,0.0481,0.0473,0.0494,0.0497,0.0498,0.05,0.051,0.0511,0.0511,0.0511,0.0531,0.0531,0,0,0,0,0,0,0.0412,0.0419,0.046,0.0459,0.0438,0.0439,0.0444,0.0467,0.0486,0.0488,0.0472,0.0474,0.0496,0.0498,0.0499,0.052,0.0511,0.0511,0.0511,0.0531,0.0531,0.0531,0,0,0,0,0,0,0.0411,0.0417,0.046,0.0433,0.0436,0.044,0.0465,0.0467,0.047,0.0479,0.0483,0.0473,0.0496,0.0499,0.0506,0.052,0.0511,0.0512,0.053,0.0531,0.0531,0.0539,0,0,0,0,0,0,0.041,0.0418,0.0432,0.0434,0.0437,0.044,0.0464,0.0466,0.0462,0.0465,0.0481,0.0484,0.0497,0.0506,0.0507,0.052,0.0512,0.053,0.0531,0.0531,0.0538,0.0539,0.0541,0,0,0,0,0,0.0409,0.0421,0.0434,0.0438,0.046,0.0438,0.0437,0.0444,0.0461,0.0453,0.0476,0.0484,0.051,0.0506,0.0507,0.0521,0.053,0.0531,0.0531,0.0538,0.0539,0.054,0,0,0,0,0,0,0.0389,0.0424,0.0439,0.0459,0.0446,0.0442,0.0434,0.044,0.0451,0.046,0.0481,0.0485,0.0496,0.0504,0.0498,0.0528,0.0524,0.0525,0.0528,0.053,0.0531,0.0538,0.0512,0,0,0,0,0,0.0394,0.0425,0.0429,0.0439,0.0437,0.0437,0.0431,0.0432,0.0438,0.0444,0.0455,0.0476,0.0499,0.051,0.0517,0.053,0.057,0.0541,0.0542,0.0543,0.0551,0.0631,0.0641,0.0534,0.0534,0.0534,0,0,0.0389,0.0408,0.0426,0.0437,0.0435,0.0417,0.0436,0.0421,0.0418,0.0444,0.0449,0.0471,0.05,0.0518,0.0525,0.0528,0.0595,0.0544,0.0545,0.0552,0.0633,0.0643,0.0653,0.0534,0.0534,0.0534,0,0,0.0359,0.0409,0.0408,0.04,0.0388,0.0398,0.0392,0.0387,0.0403,0.0401,0.0435,0.0471,0.0476,0.0521,0.0542,0.0554,0.0591,0.0549,0.057,0.0648,0.0658,0.0667,0.0734,0.0749,0.0558,0.0558,0.0558,0,0.0338,0.0347,0.0394,0.0369,0.0361,0.0389,0.036,0.0379,0.0377,0.0409,0.0398,0.0468,0.0485,0.0556,0.0561,0.0559,0.0603,0.0564,0.0652,0.0662,0.0671,0.0738,0.0754,0.0559,0.0559,0.0559,0.0559,0,0.0298,0.0293,0.0284,0.0289,0.0294,0.0267,0.0299,0.0321,0.0347,0.0376,0.0434,0.0469,0.0523,0.0534,0.0548,0.0631,0.0639,0.0639,0.0652,0.0683,0.075,0.0767,0.056,0.0559,0.0559,0.0559,0,0,0.0266,0.0256,0.0248,0.0235,0.0247,0.0245,0.0277,0.0318,0.0368,0.0387,0.0454,0.05,0.0546,0.0573,0.0611,0.0676,0.0777,0.0684,0.0688,0.0756,0.0949,0.0946,0.0965,0.0795,0.0798,0.0801,0.0969,0,0.0202,0.0136,0.0171,0.0131,0.0101,0.017,0.0201,0.0262,0.0332,0.0409,0.0494,0.0554,0.0556,0.0595,0.0663,0.075,0.0823,0.0731,0.0903,0.0908,0.0908,0.0985,0.0896,0.1039,0.0987,0.099,0.0992,0,0.0146,0.0108,0.0042,0.006,0.0062,0.0062,0.0165,0.0198,0.0342,0.0403,0.0508,0.058,0.0697,0.0681,0.0859,0.0801,0.0875,0.0934,0.0943,0.0951,0.0938,0.0998,0.1072,0.1067,0.1019,0.1017,0.1015,0,0.0082,0.0036,-0.0015,-0.0024,-0.0004,0.0019,0.006,0.019,0.026,0.0416,0.0498,0.0633,0.072,0.0828,0.0956,0.0917,0.1151,0.1116,0.1187,0.1187,0.1151,0.1143,0.1246,0.1247,0.1246,0.1246,0.1245,0,0.0003,-0.0033,-0.0055,-0.0094,-0.0103,-0.0046,0.0009,0.0089,0.0236,0.0353,0.0486,0.0611,0.0762,0.0917,0.0999,0.1162,0.1195,0.1216,0.1243,0.1149,0.1139,0.1163,0.1188,0.1252,0.1251,0.125,0.1248,0,-0.0061,-0.0086,-0.0147,-0.0157,-0.0149,-0.0151,-0.0049,0.0023,0.0161,0.0326,0.0382,0.0619,0.0819,0.0972,0.1176,0.123,0.1393,0.1416,0.1291,0.13,0.1321,0.1349,0.1567,0.1601,0.1516,0.1517,0.1518,0,-0.0101,-0.0154,-0.0208,-0.0225,-0.0236,-0.0216,-0.0172,-0.0042,0.0059,0.0344,0.0429,0.0674,0.0873,0.1167,0.1278,0.1443,0.1473,0.1467,0.1371,0.134,0.1393,0.143,0.1445,0.1331,0.133,0.1329,0.1329,0,-0.018,-0.0205,-0.0255,-0.0308,-0.0301,-0.0259,-0.0186,-0.0118,0.0093,0.0253,0.0524,0.0707,0.099,0.1148,0.1343,0.1422,0.1458,0.146,0.147,0.1305,0.1315,0.1351,0.1195,0.1324,0.1325,0.1325,0.1325,0.1325,-0.0223,-0.0275,-0.0337,-0.0369,-0.0356,-0.028,-0.0223,-0.0107,0.0057,0.0301,0.0522,0.072,0.0957,0.121,0.1323,0.1381,0.1467,0.1378,0.1434,0.1488,0.1471,0.1304,0.143,0.1431,0.1432,0.1433,0.1433,0,-0.0277,-0.0319,-0.037,-0.0388,-0.0362,-0.0333,-0.0201,-0.0121,0.0054,0.0205,0.0442,0.0639,0.0863,0.1026,0.1204,0.1311,0.1345,0.1377,0.1376,0.1407,0.1278,0.1209,0.124,0.124,0.124,0.124,0.124,0.124,-0.0304,-0.0372,-0.0402,-0.039,-0.0371,-0.0287,-0.0208,-0.0102,-0.0013,0.014,0.0197,0.03,0.0568,0.1063,0.1247,0.1277,0.1375,0.1418,0.1533,0.1361,0.1363,0.1364,0.1302,0.1353,0.1353,0.1581,0.1583,0.1585]}],[{"header":{"parameterUnit":"m.s-1","parameterCategory":2,"la1":30.2991,"la2":30.254,"lo1":-89.0895,"lo2":-89.0444,"dy":0.0017,"dx":0.0017,"nx":28,"ny":28,"refTime":"2023-08-21T03:00:00:Z","depth":"2","parameterNumber":2,"parameterNumberName":"U-component_of_CURRENTS"},"data":[0,0,0,0,0,0,0,0,0,0,0,0,0,0,0,0,0,0,0,0,0,0,0,0,0,0,0,0,0,0,0,0,0,0,0,0,0,0,0,0,0,0,0,0,0,0,0,0,0,0,0,0,0,0,0,0,0,0,-0.1895,-0.1895,0,-0.1914,-0.1914,-0.1914,-0.1856,-0.1854,-0.1853,-0.1851,-0.1766,-0.1765,-0.1764,0,0,0,0,0,0,0,0,0,0,0,0,0,-0.1804,-0.1806,-0.1895,-0.1895,-0.1896,-0.1914,-0.1914,-0.1914,-0.1856,-0.1854,-0.1852,-0.185,-0.1766,-0.1765,-0.1764,0,0,0,0,0,0,0,0,0,0,0,0,0,-0.1832,-0.1806,-0.1895,-0.1871,-0.187,-0.1914,-0.1914,-0.1914,-0.1856,-0.1854,-0.1852,-0.185,-0.1766,-0.1765,-0.1764,-0.18,0,0,-0.176,-0.1759,0,0,0,0,0,0,0,0,-0.1831,-0.1835,-0.1874,-0.1873,-0.1871,-0.1883,-0.1851,-0.1872,-0.1857,-0.1858,-0.1851,-0.1849,-0.1799,-0.1795,-0.18,-0.1796,-0.1793,-0.1759,-0.1759,-0.1758,-0.1758,0,0,0,0,0,0,0,-0.1829,-0.1834,-0.1899,-0.1875,-0.1873,-0.1859,-0.1861,-0.1855,-0.1836,-0.1857,-0.1854,-0.1862,-0.1797,-0.1802,-0.1798,-0.1791,-0.1759,-0.1758,-0.1757,-0.1757,-0.1822,-0.1825,0,0,0,0,0,0,-0.1837,-0.1833,-0.1898,-0.19,-0.1849,-0.1863,-0.1864,-0.1879,-0.1838,-0.1832,-0.1864,-0.186,-0.1805,-0.1799,-0.1794,-0.1843,-0.1758,-0.1757,-0.1756,-0.182,-0.1823,-0.1826,0,0,0,0,0,0,-0.1835,-0.1843,-0.1898,-0.1869,-0.1875,-0.1867,-0.1884,-0.1881,-0.1875,-0.1845,-0.1835,-0.1861,-0.1803,-0.1796,-0.1796,-0.1839,-0.1756,-0.1755,-0.1817,-0.1821,-0.1824,-0.1936,0,0,0,0,0,0,-0.1832,-0.1842,-0.1854,-0.187,-0.1877,-0.1928,-0.1887,-0.1883,-0.1886,-0.1879,-0.184,-0.183,-0.1801,-0.1798,-0.1794,-0.1835,-0.1754,-0.1814,-0.1818,-0.1823,-0.1929,-0.1943,-0.1955,0,0,0,0,0,-0.1829,-0.1866,-0.1855,-0.1863,-0.1895,-0.193,-0.1932,-0.1916,-0.1888,-0.1899,-0.1874,-0.1831,-0.1826,-0.1799,-0.1794,-0.1836,-0.1811,-0.1817,-0.1823,-0.1923,-0.194,-0.1955,0,0,0,0,0,0,-0.1844,-0.1864,-0.1852,-0.1895,-0.1909,-0.1921,-0.1932,-0.1922,-0.1913,-0.1897,-0.1857,-0.1848,-0.1873,-0.1841,-0.1812,-0.1872,-0.1815,-0.182,-0.1893,-0.1909,-0.1921,-0.1926,-0.1753,0,0,0,0,0,-0.1853,-0.1875,-0.1893,-0.1925,-0.1931,-0.1929,-0.1939,-0.1931,-0.1929,-0.1922,-0.1901,-0.1885,-0.1899,-0.1888,-0.1891,-0.1913,-0.187,-0.194,-0.1953,-0.1964,-0.1968,-0.1942,-0.1952,-0.1844,-0.1844,-0.1844,0,0,-0.1867,-0.1882,-0.1894,-0.1928,-0.193,-0.1961,-0.1928,-0.1948,-0.1979,-0.1915,-0.194,-0.1932,-0.1919,-0.1954,-0.1961,-0.1924,-0.1976,-0.1971,-0.1981,-0.1978,-0.1949,-0.1959,-0.1968,-0.1848,-0.1847,-0.1847,0,0,-0.1908,-0.1917,-0.1943,-0.1963,-0.1979,-0.1985,-0.1992,-0.2005,-0.2009,-0.2044,-0.2015,-0.2024,-0.2037,-0.2035,-0.2038,-0.2122,-0.2055,-0.2132,-0.2189,-0.2165,-0.2173,-0.2179,-0.2146,-0.2149,-0.2127,-0.2128,-0.2128,0,-0.1927,-0.1967,-0.1958,-0.1994,-0.2029,-0.1997,-0.2049,-0.2055,-0.207,-0.209,-0.2064,-0.2106,-0.208,-0.2131,-0.2162,-0.215,-0.2122,-0.2128,-0.218,-0.2185,-0.219,-0.2154,-0.2155,-0.2134,-0.2133,-0.2132,-0.2132,0,-0.1985,-0.2021,-0.2042,-0.2075,-0.2109,-0.215,-0.2165,-0.2191,-0.2193,-0.2196,-0.2249,-0.2229,-0.224,-0.2255,-0.2233,-0.2274,-0.2239,-0.2206,-0.2134,-0.2207,-0.2165,-0.2164,-0.2142,-0.214,-0.2138,-0.2137,0,0,-0.2028,-0.2077,-0.2082,-0.2108,-0.2165,-0.2189,-0.2262,-0.2316,-0.2341,-0.2355,-0.2402,-0.2431,-0.239,-0.2391,-0.2365,-0.2352,-0.2358,-0.2298,-0.2294,-0.2255,-0.2302,-0.2297,-0.2294,-0.2333,-0.2333,-0.2334,-0.2262,0,-0.2081,-0.2142,-0.2182,-0.2256,-0.2289,-0.2331,-0.24,-0.2436,-0.2455,-0.2477,-0.2468,-0.2481,-0.2448,-0.2446,-0.2435,-0.2374,-0.236,-0.238,-0.2246,-0.2242,-0.222,-0.2295,-0.2024,-0.194,-0.226,-0.226,-0.226,0,-0.2128,-0.2164,-0.2247,-0.2334,-0.2358,-0.2421,-0.2516,-0.2566,-0.2599,-0.2616,-0.2625,-0.2579,-0.2569,-0.252,-0.2455,-0.2468,-0.2399,-0.2352,-0.2347,-0.23,-0.2236,-0.1918,-0.1925,-0.2257,-0.2257,-0.2258,-0.2258,0,-0.2116,-0.2212,-0.2276,-0.2309,-0.2404,-0.2487,-0.2547,-0.2612,-0.2614,-0.2676,-0.2656,-0.2661,-0.2609,-0.2564,-0.2459,-0.2448,-0.2379,-0.2334,-0.2273,-0.227,-0.1992,-0.1965,-0.2295,-0.2295,-0.2295,-0.2296,-0.2296,0,-0.216,-0.2201,-0.2275,-0.2307,-0.2378,-0.2484,-0.2556,-0.262,-0.2665,-0.267,-0.2687,-0.2685,-0.2612,-0.2548,-0.2485,-0.2384,-0.2387,-0.23,-0.2262,-0.2028,-0.2007,-0.2239,-0.2234,-0.2293,-0.2294,-0.2294,-0.2295,0,-0.2125,-0.218,-0.2219,-0.2329,-0.2363,-0.2403,-0.2492,-0.2534,-0.2605,-0.2614,-0.2617,-0.2634,-0.2613,-0.2537,-0.2455,-0.238,-0.2315,-0.2278,-0.2018,-0.1955,-0.221,-0.2211,-0.2189,-0.2189,-0.2188,-0.2188,-0.2188,0,-0.2108,-0.2132,-0.2171,-0.2182,-0.2242,-0.2314,-0.2374,-0.2475,-0.252,-0.26,-0.2605,-0.2587,-0.2549,-0.2441,-0.2299,-0.2171,-0.2312,-0.1943,-0.189,-0.2239,-0.2204,-0.2206,-0.2208,-0.1544,-0.1539,-0.1534,-0.1531,0,-0.2061,-0.2061,-0.2076,-0.2086,-0.2142,-0.2178,-0.2291,-0.2279,-0.2433,-0.2417,-0.2473,-0.2438,-0.2348,-0.2097,-0.1969,-0.19,-0.1949,-0.1853,-0.2241,-0.1658,-0.1637,-0.1602,-0.1622,-0.149,-0.1494,-0.1497,-0.1499,-0.1501,-0.1983,-0.1953,-0.1962,-0.1972,-0.2022,-0.2067,-0.2019,-0.2091,-0.2069,-0.1946,-0.2162,-0.1953,-0.195,-0.153,-0.1534,-0.154,-0.1657,-0.1594,-0.1603,-0.1619,-0.1602,-0.1587,-0.1425,-0.1428,-0.1431,-0.1434,-0.1436,0,-0.1867,-0.1862,-0.1865,-0.186,-0.1867,-0.1952,-0.1967,-0.1808,-0.1669,-0.1587,-0.1462,-0.1228,-0.104,-0.1139,-0.0998,-0.1048,-0.0998,-0.1127,-0.1009,-0.1046,-0.1081,-0.1036,-0.0708,-0.0707,-0.0706,-0.0705,0,0,-0.1801,-0.175,-0.1755,-0.171,-0.1732,-0.164,-0.1586,-0.1294,-0.1109,-0.0805,-0.064,-0.0518,-0.08,-0.0556,-0.0654,-0.0651,-0.0824,-0.0639,-0.119,-0.1062,-0.1094,-0.1299,-0.1266,0,0,0,0,0]},{"header":{"parameterUnit":"m.s-1","parameterCategory":2,"la1":30.2991,"la2":30.254,"lo1":-89.0895,"lo2":-89.0444,"dy":0.0017,"dx":0.0017,"nx":28,"ny":28,"refTime":"2023-08-21T03:00:00:Z","depth":"2","parameterNumber":3,"parameterNumberName":"V-component_of_CURRENTS"},"data":[0,0,0,0,0,0,0,0,0,0,0,0,0,0,0,0,0,0,0,0,0,0,0,0,0,0,0,0,0,0,0,0,0,0,0,0,0,0,0,0,0,0,0,0,0,0,0,0,0,0,0,0,0,0,0,0,0,0,-0.0753,-0.0753,0,-0.0722,-0.0722,-0.0722,-0.0645,-0.0643,-0.0641,-0.064,-0.0592,-0.0592,-0.0593,0,0,0,0,0,0,0,0,0,0,0,0,0,-0.0707,-0.0709,-0.0753,-0.0753,-0.0752,-0.0722,-0.0722,-0.0722,-0.0645,-0.0643,-0.0641,-0.0639,-0.0592,-0.0592,-0.0593,0,0,0,0,0,0,0,0,0,0,0,0,0,-0.0708,-0.0709,-0.0753,-0.071,-0.0706,-0.0722,-0.0722,-0.0721,-0.0645,-0.0643,-0.064,-0.0638,-0.0592,-0.0592,-0.0593,-0.0647,0,0,-0.0594,-0.0594,0,0,0,0,0,0,0,0,-0.0708,-0.071,-0.0717,-0.0713,-0.0708,-0.0684,-0.0688,-0.0695,-0.0646,-0.0669,-0.064,-0.0637,-0.0623,-0.062,-0.0622,-0.0644,-0.0642,-0.0594,-0.0595,-0.0595,-0.0595,0,0,0,0,0,0,0,-0.0708,-0.071,-0.0742,-0.0716,-0.0711,-0.0678,-0.0676,-0.0689,-0.0661,-0.0667,-0.0661,-0.0657,-0.062,-0.0621,-0.062,-0.0642,-0.0594,-0.0595,-0.0595,-0.0595,-0.0496,-0.0493,0,0,0,0,0,0,-0.0716,-0.0711,-0.0743,-0.0741,-0.0701,-0.0681,-0.0679,-0.0695,-0.0661,-0.0653,-0.0659,-0.0654,-0.0622,-0.0619,-0.0618,-0.0516,-0.0595,-0.0595,-0.0595,-0.0499,-0.0495,-0.0492,0,0,0,0,0,0,-0.0715,-0.072,-0.0744,-0.0723,-0.0723,-0.0685,-0.0704,-0.0696,-0.0663,-0.0655,-0.0647,-0.0631,-0.062,-0.0617,-0.0577,-0.052,-0.0595,-0.0596,-0.0502,-0.0498,-0.0494,-0.0417,0,0,0,0,0,0,-0.0714,-0.072,-0.0738,-0.0724,-0.0725,-0.0741,-0.0706,-0.0697,-0.0666,-0.0658,-0.0629,-0.0624,-0.0618,-0.0576,-0.0578,-0.0522,-0.0596,-0.0506,-0.05,-0.0495,-0.0423,-0.0411,-0.04,0,0,0,0,0,-0.0713,-0.074,-0.074,-0.0743,-0.075,-0.0741,-0.0738,-0.0702,-0.0667,-0.0661,-0.0614,-0.0623,-0.0541,-0.0576,-0.0578,-0.052,-0.0509,-0.0502,-0.0496,-0.0429,-0.0413,-0.04,0,0,0,0,0,0,-0.0745,-0.0735,-0.0733,-0.0762,-0.0748,-0.0727,-0.0718,-0.0693,-0.0655,-0.063,-0.0611,-0.0603,-0.0526,-0.0545,-0.0584,-0.0469,-0.0517,-0.0511,-0.0465,-0.0451,-0.044,-0.0449,-0.0597,0,0,0,0,0,-0.0762,-0.0771,-0.0759,-0.0784,-0.077,-0.0742,-0.0732,-0.0704,-0.067,-0.0648,-0.0618,-0.0572,-0.0511,-0.0499,-0.046,-0.0439,-0.0437,-0.0392,-0.0381,-0.0371,-0.0375,-0.0325,-0.031,-0.0471,-0.0471,-0.0471,0,0,-0.0791,-0.078,-0.0793,-0.079,-0.0771,-0.0755,-0.0728,-0.0703,-0.0669,-0.0654,-0.0589,-0.053,-0.0489,-0.0422,-0.0392,-0.0432,-0.0316,-0.0363,-0.0355,-0.0365,-0.0316,-0.0301,-0.0287,-0.0466,-0.0467,-0.0468,0,0,-0.0814,-0.083,-0.0823,-0.0803,-0.0767,-0.0759,-0.0744,-0.0701,-0.0653,-0.0599,-0.0539,-0.0457,-0.0406,-0.0351,-0.0318,-0.0233,-0.0239,-0.0201,-0.0176,-0.0125,-0.0113,-0.0101,-0.0054,-0.004,-0.0217,-0.0217,-0.0217,0,-0.0846,-0.0835,-0.0823,-0.0792,-0.0766,-0.0753,-0.0722,-0.0695,-0.0639,-0.0585,-0.0562,-0.0401,-0.0368,-0.0264,-0.0209,-0.0207,-0.018,-0.0236,-0.0112,-0.0101,-0.0091,-0.0046,-0.0031,-0.0212,-0.0213,-0.0213,-0.0214,0,-0.0845,-0.0828,-0.0818,-0.078,-0.0758,-0.0736,-0.0689,-0.0646,-0.0584,-0.0542,-0.0403,-0.0337,-0.0251,-0.0197,-0.0174,-0.0065,-0.0067,-0.0088,-0.0157,-0.0071,-0.0028,-0.0013,-0.0206,-0.0208,-0.0209,-0.021,0,0,-0.0934,-0.0837,-0.0831,-0.0801,-0.0736,-0.0734,-0.0654,-0.0588,-0.0545,-0.0446,-0.0369,-0.0209,-0.0172,-0.0131,-0.008,-0.0022,0.0093,-0.002,-0.002,0.0012,0.0216,0.005,0.005,0.0098,0.01,0.0102,0.0225,0,-0.0932,-0.0877,-0.0812,-0.0777,-0.075,-0.0679,-0.0623,-0.0556,-0.0488,-0.0431,-0.0308,-0.0225,-0.0153,-0.0102,-0.0025,0.0055,0.0132,0.0062,0.014,0.0142,-0.0028,0.006,0.0067,0.0162,0.0239,0.0241,0.0243,0,-0.0941,-0.0901,-0.0837,-0.076,-0.0738,-0.0702,-0.0614,-0.0567,-0.0466,-0.0395,-0.0284,-0.023,-0.0103,-0.0078,0.0115,0.0071,0.016,0.0226,0.0231,0.005,0.0001,0.0087,0.0185,0.0266,0.0264,0.0263,0.0261,0,-0.1014,-0.0926,-0.0875,-0.0847,-0.0757,-0.0682,-0.0639,-0.0534,-0.052,-0.0389,-0.0382,-0.0209,-0.0174,-0.0006,0.0088,0.0135,0.0243,0.0311,0.0261,0.0251,0.0254,0.0237,0.0458,0.0458,0.0457,0.0457,0.0457,0,-0.1045,-0.1014,-0.0899,-0.088,-0.0849,-0.0732,-0.0699,-0.0613,-0.0541,-0.0573,-0.0393,-0.0402,-0.0156,-0.0101,0.0065,0.015,0.0221,0.0279,0.0271,0.0281,0.0265,0.0339,0.0323,0.0462,0.0461,0.046,0.0459,0,-0.1128,-0.1045,-0.1015,-0.0905,-0.0878,-0.0858,-0.0802,-0.0817,-0.0682,-0.0723,-0.0694,-0.0554,-0.0423,-0.0251,-0.0029,0.0056,0.0194,0.0202,0.0176,0.016,0.0213,0.0201,0.0269,0.0264,0.026,0.0256,0.0253,0,-0.1161,-0.1141,-0.1082,-0.1103,-0.1044,-0.1009,-0.1023,-0.0903,-0.0929,-0.0853,-0.0909,-0.078,-0.0687,-0.0451,-0.0252,-0.0003,0.0053,0.0078,0.0174,0.0209,0.0195,0.0189,0.0183,0.0257,0.0254,0.0252,0.025,0,-0.1243,-0.1212,-0.1203,-0.1247,-0.1259,-0.1291,-0.1271,-0.1298,-0.1201,-0.1177,-0.1115,-0.1003,-0.0791,-0.0523,-0.0304,-0.0156,0.005,0.0036,0.0101,0.0238,0.0189,0.0176,0.0174,0.0231,0.0233,0.0235,0.0236,0.0236,-0.132,-0.1352,-0.1348,-0.1398,-0.1452,-0.1488,-0.1475,-0.1464,-0.1442,-0.1315,-0.1287,-0.1062,-0.0852,-0.0459,-0.0274,-0.0099,-0.0082,0.0034,0.0047,0.0061,-0.0029,-0.009,-0.0113,-0.0113,-0.0113,-0.0113,-0.0113,0,-0.1393,-0.143,-0.1507,-0.1536,-0.1616,-0.1604,-0.1607,-0.1526,-0.1449,-0.1358,-0.1216,-0.093,-0.0693,-0.0441,-0.018,-0.005,0.0064,-0.0002,0.0149,0.0161,0.0173,0.0098,0.0045,0.0047,0.0048,0.005,0,0,-0.1431,-0.15,-0.1534,-0.1645,-0.1688,-0.1689,-0.1659,-0.1504,-0.1354,-0.1118,-0.0974,-0.0905,-0.0652,-0.0434,-0.0247,-0.0071,0.0042,-0.0035,-0.019,-0.0021,-0.0007,0.0141,0.0027,0,0,0,0,0]}],[{"header":{"parameterUnit":"m.s-1","parameterCategory":2,"la1":30.2991,"la2":30.254,"lo1":-89.0895,"lo2":-89.0444,"dy":0.0017,"dx":0.0017,"nx":28,"ny":28,"refTime":"2023-08-21T03:00:00:Z","depth":"4","parameterNumber":2,"parameterNumberName":"U-component_of_CURRENTS"},"data":[0,0,0,0,0,0,0,0,0,0,0,0,0,0,0,0,0,0,0,0,0,0,0,0,0,0,0,0,0,0,0,0,0,0,0,0,0,0,0,0,0,0,0,0,0,0,0,0,0,0,0,0,0,0,0,0,0,0,-0.0681,-0.0681,0,-0.0673,-0.0673,-0.0672,-0.0677,-0.0677,-0.0678,-0.0679,-0.0733,-0.0734,-0.0735,0,0,0,0,0,0,0,0,0,0,0,0,0,-0.062,-0.0621,-0.0681,-0.0681,-0.0681,-0.0673,-0.0673,-0.0672,-0.0677,-0.0677,-0.0678,-0.0679,-0.0733,-0.0734,-0.0735,0,0,0,0,0,0,0,0,0,0,0,0,0,-0.0629,-0.0622,-0.0681,-0.0686,-0.0686,-0.0673,-0.0673,-0.0672,-0.0676,-0.0677,-0.0678,-0.0679,-0.0732,-0.0734,-0.0735,-0.0725,0,0,-0.0739,-0.074,0,0,0,0,0,0,0,0,-0.0629,-0.0631,-0.0685,-0.0685,-0.0686,-0.0681,-0.0672,-0.0694,-0.0676,-0.0676,-0.0679,-0.068,-0.0723,-0.0725,-0.0715,-0.0727,-0.073,-0.0739,-0.074,-0.074,-0.0741,0,0,0,0,0,0,0,-0.0628,-0.0631,-0.0673,-0.0685,-0.0686,-0.0662,-0.0664,-0.0675,-0.0692,-0.0676,-0.0677,-0.0683,-0.0724,-0.0714,-0.0717,-0.0731,-0.0739,-0.074,-0.0741,-0.0742,-0.0873,-0.0875,0,0,0,0,0,0,-0.0641,-0.0631,-0.0674,-0.0674,-0.0664,-0.0663,-0.0665,-0.0678,-0.0691,-0.0694,-0.0682,-0.0683,-0.0711,-0.0715,-0.0719,-0.0831,-0.074,-0.0742,-0.0742,-0.087,-0.0874,-0.0876,0,0,0,0,0,0,-0.064,-0.0645,-0.0674,-0.0655,-0.0657,-0.0664,-0.0677,-0.0677,-0.0697,-0.0696,-0.07,-0.0705,-0.0712,-0.0717,-0.0737,-0.0829,-0.0742,-0.0743,-0.0867,-0.0871,-0.0875,-0.0977,0,0,0,0,0,0,-0.0638,-0.0645,-0.0661,-0.0656,-0.0659,-0.0687,-0.0677,-0.0677,-0.0699,-0.0701,-0.0717,-0.0721,-0.0713,-0.0735,-0.0738,-0.0829,-0.0745,-0.0864,-0.0869,-0.0874,-0.097,-0.0984,-0.0996,0,0,0,0,0,-0.0636,-0.0636,-0.0662,-0.0667,-0.068,-0.0688,-0.0687,-0.069,-0.07,-0.0711,-0.0712,-0.0722,-0.0772,-0.0736,-0.074,-0.0834,-0.0861,-0.0867,-0.0873,-0.0965,-0.0982,-0.0996,0,0,0,0,0,0,-0.0618,-0.0637,-0.0665,-0.0674,-0.0699,-0.0691,-0.0693,-0.0708,-0.0716,-0.0722,-0.0723,-0.0726,-0.0787,-0.0786,-0.0747,-0.0888,-0.0833,-0.084,-0.0901,-0.0917,-0.093,-0.0893,-0.0746,0,0,0,0,0,-0.0626,-0.0644,-0.0662,-0.0685,-0.0688,-0.0702,-0.0708,-0.0721,-0.0725,-0.073,-0.0746,-0.0773,-0.0811,-0.084,-0.0854,-0.0914,-0.0905,-0.0988,-0.1001,-0.1012,-0.0987,-0.1049,-0.1065,-0.0896,-0.0896,-0.0896,0,0,-0.0639,-0.0647,-0.0665,-0.0685,-0.0695,-0.0717,-0.0707,-0.0725,-0.0741,-0.0736,-0.0762,-0.0804,-0.083,-0.0897,-0.0931,-0.0913,-0.1061,-0.102,-0.1029,-0.0996,-0.1057,-0.1073,-0.1088,-0.09,-0.09,-0.0899,0,0,-0.0654,-0.0669,-0.0686,-0.0703,-0.0728,-0.0736,-0.0754,-0.0769,-0.0764,-0.0809,-0.0816,-0.0907,-0.095,-0.0999,-0.1028,-0.1122,-0.1114,-0.1151,-0.1204,-0.1267,-0.1281,-0.1293,-0.1321,-0.1334,-0.1175,-0.1175,-0.1175,0,-0.0668,-0.068,-0.0695,-0.0711,-0.0725,-0.0754,-0.0776,-0.0776,-0.0804,-0.0815,-0.0836,-0.096,-0.1008,-0.1097,-0.1143,-0.1157,-0.1156,-0.1145,-0.1283,-0.1294,-0.1304,-0.133,-0.1344,-0.1181,-0.118,-0.1179,-0.1179,0,-0.069,-0.0707,-0.0709,-0.075,-0.0781,-0.0789,-0.081,-0.0837,-0.0871,-0.0899,-0.0986,-0.1051,-0.1144,-0.1203,-0.1204,-0.1319,-0.1283,-0.1279,-0.1239,-0.1327,-0.1349,-0.1362,-0.1189,-0.1187,-0.1185,-0.1184,0,0,-0.0686,-0.0714,-0.0718,-0.0726,-0.0785,-0.0798,-0.0845,-0.0877,-0.0906,-0.0987,-0.1042,-0.1175,-0.124,-0.1274,-0.1322,-0.1387,-0.1502,-0.1365,-0.1366,-0.1383,-0.1605,-0.1357,-0.1346,-0.1513,-0.1515,-0.1517,-0.1596,0,-0.0687,-0.0695,-0.0731,-0.0765,-0.0763,-0.0818,-0.0858,-0.0915,-0.0965,-0.1024,-0.1121,-0.1204,-0.1252,-0.133,-0.1409,-0.1461,-0.1534,-0.1478,-0.1522,-0.1523,-0.1284,-0.1352,-0.1524,-0.1605,-0.1608,-0.161,-0.1611,0,-0.0681,-0.0679,-0.0698,-0.0732,-0.0741,-0.0786,-0.0854,-0.0894,-0.0992,-0.1047,-0.1173,-0.1234,-0.1372,-0.1392,-0.1545,-0.1496,-0.156,-0.1596,-0.16,-0.1326,-0.1295,-0.1495,-0.1632,-0.1631,-0.1629,-0.1628,-0.1626,0,-0.0622,-0.0646,-0.0647,-0.0662,-0.0731,-0.0756,-0.0802,-0.0908,-0.0935,-0.1064,-0.1143,-0.1282,-0.1361,-0.1472,-0.1557,-0.1573,-0.1659,-0.1711,-0.1545,-0.1529,-0.1683,-0.1669,-0.1813,-0.1813,-0.1813,-0.1813,-0.1813,0,-0.0575,-0.0571,-0.0608,-0.0606,-0.0618,-0.0705,-0.0748,-0.0821,-0.0935,-0.0981,-0.115,-0.1193,-0.1379,-0.1445,-0.1546,-0.1536,-0.1674,-0.1534,-0.1527,-0.1728,-0.1718,-0.1693,-0.1678,-0.1816,-0.1815,-0.1815,-0.1814,0,-0.0518,-0.0539,-0.0533,-0.0578,-0.0589,-0.0607,-0.0689,-0.073,-0.0861,-0.0932,-0.0985,-0.1134,-0.1193,-0.1319,-0.1457,-0.148,-0.1531,-0.1496,-0.1654,-0.1659,-0.1379,-0.1369,-0.1369,-0.1361,-0.1354,-0.1348,-0.1343,0,-0.0487,-0.0478,-0.0497,-0.0494,-0.0508,-0.0537,-0.0573,-0.0684,-0.0726,-0.086,-0.0881,-0.0957,-0.1039,-0.1044,-0.1179,-0.1303,-0.1306,-0.1361,-0.1417,-0.1336,-0.1333,-0.1334,-0.1333,-0.1332,-0.133,-0.1328,-0.1327,0,-0.0424,-0.0438,-0.0432,-0.0426,-0.0436,-0.045,-0.0487,-0.0503,-0.0632,-0.074,-0.075,-0.08,-0.0808,-0.0891,-0.0939,-0.1049,-0.1352,-0.1291,-0.1309,-0.1362,-0.1292,-0.1295,-0.1303,-0.1303,-0.1306,-0.1308,-0.131,0,-0.0378,-0.0355,-0.0354,-0.0347,-0.0356,-0.036,-0.0389,-0.0413,-0.0461,-0.0607,-0.0562,-0.0661,-0.0725,-0.075,-0.0811,-0.0853,-0.0905,-0.0981,-0.1017,-0.1045,-0.09,-0.0761,-0.0588,0,0,0,0,0,-0.0326,-0.029,-0.0277,-0.0259,-0.0275,-0.0282,-0.034,-0.0388,-0.0473,-0.0444,-0.0508,-0.0509,-0.0555,-0.0599,-0.059,-0.0705,-0.0929,-0.0698,-0.1038,-0.1169,-0.1197,-0.1055,0,0,0,0,0,0,-0.0281,-0.0255,-0.0246,-0.0195,-0.0176,-0.0187,-0.0222,-0.0288,-0.0276,-0.0364,-0.0375,-0.0457,-0.0498,-0.052,-0.056,-0.0582,-0.0789,-0.0751,-0.075,-0.1153,-0.1178,-0.1201,-0.1064,0,0,0,0,0]},{"header":{"parameterUnit":"m.s-1","parameterCategory":2,"la1":30.2991,"la2":30.254,"lo1":-89.0895,"lo2":-89.0444,"dy":0.0017,"dx":0.0017,"nx":28,"ny":28,"refTime":"2023-08-21T03:00:00:Z","depth":"4","parameterNumber":3,"parameterNumberName":"V-component_of_CURRENTS"},"data":[0,0,0,0,0,0,0,0,0,0,0,0,0,0,0,0,0,0,0,0,0,0,0,0,0,0,0,0,0,0,0,0,0,0,0,0,0,0,0,0,0,0,0,0,0,0,0,0,0,0,0,0,0,0,0,0,0,0,-0.0132,-0.0133,0,-0.0153,-0.0153,-0.0153,-0.0142,-0.0142,-0.0141,-0.0141,-0.0145,-0.0146,-0.0146,0,0,0,0,0,0,0,0,0,0,0,0,0,-0.0081,-0.0082,-0.0132,-0.0133,-0.0133,-0.0153,-0.0153,-0.0153,-0.0142,-0.0142,-0.0141,-0.0141,-0.0145,-0.0146,-0.0146,0,0,0,0,0,0,0,0,0,0,0,0,0,-0.0101,-0.0082,-0.0132,-0.0131,-0.0132,-0.0153,-0.0153,-0.0153,-0.0142,-0.0142,-0.0141,-0.0141,-0.0145,-0.0145,-0.0146,-0.0163,0,0,-0.0148,-0.0149,0,0,0,0,0,0,0,0,-0.01,-0.0103,-0.0131,-0.0131,-0.0132,-0.0146,-0.0136,-0.0156,-0.0142,-0.0136,-0.0141,-0.014,-0.0145,-0.0146,-0.0149,-0.0163,-0.0163,-0.0148,-0.0149,-0.0149,-0.0149,0,0,0,0,0,0,0,-0.0098,-0.0102,-0.0139,-0.0132,-0.0132,-0.0129,-0.0131,-0.014,-0.0142,-0.0137,-0.0137,-0.0142,-0.0145,-0.0148,-0.0149,-0.0163,-0.0148,-0.0149,-0.015,-0.015,-0.0198,-0.0199,0,0,0,0,0,0,-0.01,-0.01,-0.0138,-0.0139,-0.0116,-0.013,-0.0133,-0.014,-0.0143,-0.0143,-0.0142,-0.0141,-0.0147,-0.0148,-0.0149,-0.0194,-0.0149,-0.015,-0.015,-0.0197,-0.0198,-0.0199,0,0,0,0,0,0,-0.0099,-0.0103,-0.0137,-0.0121,-0.0126,-0.0132,-0.0141,-0.0141,-0.0148,-0.0147,-0.0147,-0.0149,-0.0147,-0.0148,-0.0163,-0.0193,-0.015,-0.0151,-0.0196,-0.0198,-0.0199,-0.0268,0,0,0,0,0,0,-0.0098,-0.0103,-0.011,-0.0122,-0.0127,-0.0156,-0.0142,-0.0142,-0.0152,-0.0151,-0.0153,-0.0152,-0.0147,-0.0162,-0.0164,-0.0194,-0.0151,-0.0195,-0.0197,-0.0198,-0.0265,-0.0272,-0.0278,0,0,0,0,0,-0.0096,-0.0113,-0.011,-0.0115,-0.0136,-0.0157,-0.0159,-0.016,-0.0153,-0.0162,-0.0163,-0.0152,-0.0174,-0.0164,-0.0166,-0.0196,-0.0194,-0.0196,-0.0198,-0.0262,-0.0271,-0.0278,0,0,0,0,0,0,-0.0098,-0.0114,-0.0111,-0.0133,-0.0145,-0.0156,-0.0169,-0.0166,-0.0174,-0.0172,-0.0165,-0.0166,-0.0191,-0.0181,-0.017,-0.0212,-0.0182,-0.0184,-0.023,-0.0238,-0.0244,-0.026,-0.0152,0,0,0,0,0,-0.0101,-0.0115,-0.0129,-0.0146,-0.0155,-0.0162,-0.017,-0.0171,-0.0179,-0.0182,-0.0188,-0.0191,-0.0201,-0.0208,-0.0213,-0.0239,-0.0223,-0.0257,-0.0264,-0.0269,-0.0283,-0.0275,-0.0282,-0.0205,-0.0205,-0.0205,0,0,-0.0109,-0.0118,-0.0127,-0.0147,-0.0157,-0.019,-0.0165,-0.0184,-0.0211,-0.0182,-0.0222,-0.0215,-0.0211,-0.0241,-0.0251,-0.0236,-0.0283,-0.0272,-0.0277,-0.0287,-0.0278,-0.0285,-0.0292,-0.0207,-0.0207,-0.0206,0,0,-0.0138,-0.0139,-0.0165,-0.018,-0.0198,-0.0208,-0.0216,-0.0234,-0.024,-0.0271,-0.0258,-0.0271,-0.0289,-0.0296,-0.03,-0.0344,-0.0316,-0.0341,-0.0391,-0.0384,-0.039,-0.0395,-0.0386,-0.039,-0.0345,-0.0345,-0.0345,0,-0.0147,-0.0182,-0.0176,-0.0208,-0.0233,-0.0222,-0.0266,-0.0274,-0.0294,-0.031,-0.0293,-0.0326,-0.0321,-0.0358,-0.0372,-0.0362,-0.0346,-0.0364,-0.0393,-0.0398,-0.0402,-0.0391,-0.0395,-0.0349,-0.0348,-0.0348,-0.0348,0,-0.02,-0.023,-0.0249,-0.0289,-0.0312,-0.0344,-0.036,-0.038,-0.0386,-0.0397,-0.0428,-0.0417,-0.0437,-0.0435,-0.0421,-0.0454,-0.0428,-0.0401,-0.0375,-0.0414,-0.04,-0.0402,-0.0354,-0.0353,-0.0352,-0.0351,0,0,-0.0222,-0.0276,-0.0285,-0.0317,-0.0358,-0.0383,-0.043,-0.0473,-0.0503,-0.0512,-0.0554,-0.0565,-0.0549,-0.0551,-0.0527,-0.052,-0.0536,-0.0478,-0.0476,-0.0473,-0.0515,-0.0476,-0.0474,-0.0508,-0.0509,-0.0509,-0.0493,0,-0.027,-0.034,-0.0361,-0.0439,-0.0481,-0.0495,-0.0544,-0.0574,-0.0585,-0.062,-0.0606,-0.0634,-0.0594,-0.06,-0.059,-0.0548,-0.0545,-0.0543,-0.0475,-0.0473,-0.0437,-0.0477,-0.0512,-0.0495,-0.0496,-0.0496,-0.0496,0,-0.0321,-0.0361,-0.0446,-0.0516,-0.0538,-0.0588,-0.0653,-0.0694,-0.0728,-0.0731,-0.0745,-0.0729,-0.0737,-0.0686,-0.0645,-0.0641,-0.0594,-0.0553,-0.055,-0.0493,-0.0439,-0.0447,-0.05,-0.05,-0.05,-0.0499,-0.0499,0,-0.0338,-0.0422,-0.0491,-0.0517,-0.0598,-0.0643,-0.0689,-0.0735,-0.0766,-0.0803,-0.0817,-0.0816,-0.0809,-0.076,-0.0676,-0.0664,-0.0613,-0.0584,-0.0508,-0.0504,-0.0512,-0.0506,-0.0564,-0.0564,-0.0564,-0.0564,-0.0564,0,-0.0382,-0.0436,-0.0506,-0.0545,-0.0629,-0.0679,-0.0759,-0.0791,-0.084,-0.0871,-0.0876,-0.0871,-0.0823,-0.0781,-0.0708,-0.0614,-0.0639,-0.0531,-0.0503,-0.0541,-0.0539,-0.0513,-0.0508,-0.0563,-0.0563,-0.0563,-0.0564,0,-0.0396,-0.0444,-0.0522,-0.0612,-0.0642,-0.0704,-0.0793,-0.0835,-0.0882,-0.0918,-0.0934,-0.092,-0.0855,-0.0797,-0.0708,-0.0648,-0.0568,-0.0527,-0.0581,-0.0553,-0.046,-0.0458,-0.046,-0.0458,-0.0457,-0.0456,-0.0455,0,-0.0413,-0.0454,-0.0552,-0.0595,-0.0642,-0.0729,-0.0779,-0.0847,-0.087,-0.0921,-0.092,-0.0901,-0.087,-0.0726,-0.0661,-0.0552,-0.0519,-0.05,-0.0483,-0.048,-0.0452,-0.0452,-0.0452,-0.0453,-0.0453,-0.0453,-0.0452,0,-0.0435,-0.0469,-0.0524,-0.0598,-0.0663,-0.0734,-0.0798,-0.0817,-0.0881,-0.0923,-0.089,-0.085,-0.0777,-0.0684,-0.0611,-0.0522,-0.0531,-0.0487,-0.0489,-0.0472,-0.0472,-0.0446,-0.0447,-0.0448,-0.0449,-0.0449,-0.0449,0,-0.0436,-0.0466,-0.0522,-0.059,-0.0663,-0.0712,-0.0762,-0.0783,-0.0819,-0.0863,-0.0837,-0.0796,-0.0779,-0.0666,-0.0585,-0.0515,-0.0488,-0.0467,-0.0469,-0.0473,-0.0476,-0.0478,-0.0445,0,0,0,0,0,-0.0428,-0.0443,-0.0502,-0.057,-0.0642,-0.0683,-0.0753,-0.0793,-0.0841,-0.0806,-0.0826,-0.0753,-0.0658,-0.0618,-0.0535,-0.0556,-0.0479,-0.0458,-0.0456,-0.0426,-0.043,-0.0428,0,0,0,0,0,0,-0.0412,-0.0455,-0.0482,-0.0536,-0.0577,-0.0647,-0.0697,-0.0739,-0.0714,-0.0754,-0.0689,-0.0713,-0.0605,-0.0685,-0.052,-0.0506,-0.0491,-0.0428,-0.0426,-0.0423,-0.0427,-0.0431,-0.043,0,0,0,0,0]}]]